Home   Weather   Zagreb   Past weeks

Flag for Croatia Past Weather in Zagreb, Croatia — Yesterday and Last 2 Weeks

Now
32 °F

Light snow. More clouds than sun.


Feels Like: 20 °F
Forecast: 26 / 29 °F
Wind: 20 mph from Northeast

Location: Zagreb / Pleso

Current Time: Jan 17, 2017 at 2:13:10 pm

Latest Report: Jan 17, 2017 at 1:30 pm


Visibility: 5 mi

Pressure: 30.24 "Hg

Humidity: 69%

Dew Point: 23 °F

Location of ZagrebLocation

Past Weather in Zagreb — Graph

°F

Zagreb Temperature Yesterday

Maximum temperature yesterday: 32 °F (at 11:00 am)
Minimum temperature yesterday: 18 °F (at 12:00 am)
Average temperature yesterday: 27 °F

High & Low Weather Summary for the Past Weeks

 TemperatureHumidityPressure
High55 °F (Jan 13, 12:30 pm)100% (Jan 3, 4:30 am)30.51 "Hg (Jan 3, 4:30 am)
Low5 °F (Jan 11, 1:00 am)33% (Jan 7, 4:00 pm)29.39 "Hg (Jan 13, 1:00 pm)
Average26 °F76%30.09 "Hg
* Reported Jan 2 1:00 pm — Jan 17 1:00 pm, Zagreb, Weather by CustomWeather, © 2017

Note: Actual official high and low records may vary slightly from our data, if they occured in-between our weather recording intervals... More about our weather records

Advertising

Zagreb Weather History for the Previous 24 Hours

Scroll right to see more
 ConditionsComfort  
Time TempWeatherWind HumidityBarometerVisibility
1:00 pm
Tue, Jan 17
32 °FLight snow. Passing clouds.21 mph69%30.24 "HgN/A
12:30 pm32 °FPassing clouds.24 mph69%30.24 "HgN/A
12:00 pm32 °FSunny.23 mph69%30.24 "Hg10 mi
11:30 am30 °FSunny.20 mph75%30.24 "Hg10 mi
11:00 am30 °FPassing clouds.22 mph75%30.24 "HgN/A
10:30 am30 °FPassing clouds.21 mph75%30.24 "HgN/A
10:00 am30 °FPassing clouds.20 mph75%30.24 "HgN/A
9:30 am30 °FLight snow. Clear.16 mph75%30.24 "HgN/A
9:00 am30 °FLight snow. Passing clouds.20 mph75%30.21 "HgN/A
8:30 am28 °FLight snow. Partly sunny.20 mph86%30.21 "HgN/A
8:00 am28 °FLight snow. Partly sunny.21 mph86%30.18 "HgN/A
7:30 am28 °FLight snow. Passing clouds.21 mph86%30.18 "HgN/A
7:00 am28 °FLight snow. Passing clouds.21 mph93%30.18 "HgN/A
6:30 am28 °FLight snow. Passing clouds.20 mph93%30.15 "Hg5 mi
6:00 am28 °FLight snow. Passing clouds.20 mph93%30.15 "Hg4 mi
5:30 am28 °FLight snow. Low clouds.21 mph93%30.15 "Hg2 mi
5:00 am28 °FLight snow. Low clouds.20 mph93%30.15 "Hg1 mi
4:30 am28 °FLight snow. Low clouds.18 mph93%30.12 "Hg2 mi
4:00 am28 °FSnow. Mostly cloudy.18 mph93%30.12 "Hg1 mi
3:30 am28 °FLight snow. Overcast.20 mph86%30.12 "Hg2 mi
3:00 am28 °FLight snow. Overcast.21 mph86%30.12 "Hg4 mi
2:30 am28 °FLight snow. Overcast.23 mph86%30.12 "HgN/A
2:00 am28 °FLight snow. Passing clouds.23 mph86%30.12 "HgN/A
1:30 am28 °FLight snow. Passing clouds.23 mph86%30.12 "HgN/A
1:00 am28 °FLight snow. Passing clouds.20 mph86%30.12 "HgN/A
12:30 am28 °FLight snow. Mostly cloudy.22 mph86%30.12 "HgN/A
12:00 am28 °FLight snow. Mostly cloudy.23 mph86%30.12 "HgN/A
11:30 pm
Mon, Jan 16
30 °FPassing clouds.23 mph75%30.12 "HgN/A
11:00 pm30 °FLight snow. Clear.23 mph80%30.12 "HgN/A
10:30 pm30 °FLight snow. Passing clouds.17 mph80%30.12 "HgN/A
10:00 pm28 °FLight snow. Overcast.18 mph86%30.12 "HgN/A
9:30 pm30 °FLight snow. Passing clouds.22 mph80%30.12 "HgN/A
9:00 pm30 °FLight snow. Clear.21 mph80%30.09 "HgN/A
8:30 pm30 °FLight snow. Clear.22 mph80%30.09 "HgN/A
8:00 pm30 °FLight snow. Passing clouds.21 mph80%30.09 "HgN/A
7:30 pm30 °FLight snow. Passing clouds.18 mph80%30.09 "HgN/A
7:00 pm30 °FPassing clouds.17 mph80%30.09 "HgN/A
6:30 pm30 °FIcy mix. Clear.17 mph80%30.07 "HgN/A
6:00 pm30 °FIcy mix. Clear.17 mph80%30.07 "HgN/A
5:30 pm32 °FPassing clouds.17 mph75%30.07 "HgN/A
5:00 pm32 °FPassing clouds.14 mph75%30.07 "HgN/A
4:30 pm32 °FOvercast.13 mph75%30.07 "HgN/A
4:00 pm32 °FOvercast.13 mph75%30.07 "HgN/A
3:30 pm32 °FSunny.14 mph75%30.07 "Hg10 mi
3:00 pm32 °FSunny.15 mph75%30.07 "Hg10 mi
2:30 pm32 °FPassing clouds.15 mph75%30.07 "HgN/A
2:00 pm32 °FPassing clouds.14 mph75%30.07 "HgN/A
Weather by CustomWeather, © 2017

See weather overviewHow to use our weather pages